Luojia-1 KSW 01 xing

operational
NORAD ID: 43485 Int'l Des: 2018-048 Owner: WUHAN Country: CN
LEOCIRCULARRETROGRADESSO

Über Luojia-1 KSW 01 xing

Beschreibung wird geladen...

Live-Position

3D-Globus wird geladen...

Nächste Überflüge

Höhenverlauf

Altitude vs Time

uPlot chart will show altitude changes over time

Zweizeiliger Elementsatz

1 43485U 18048B 26061.18722977 .00001303 00000-0 15204-3 0 9995
2 43485 97.8177 141.1047 0010468 111.4913 248.7420 14.86827819418310
Epoch: 2. März 2026 • Age: 32 hours

Aktueller Status

Höhe 642.7 km
Geschwindigkeit 7.53 km/s
Subsatellitenpunkt -80.63°S, 7.53°W
Startdatum 2. Juni 2018
Alter 7.7 years
Typ other

Technische Details

Klassifizierung Payload
Masse 10.00 kg
Trockenmasse 10.00 kg
Gesamtmasse 10.00 kg
Länge 0.30 m
Durchmesser 0.20 m
Spannweite 0.50 m
Form Box+pan
Hersteller WUHAN
Bus-Typ Cubesat 6U
Phasenstatus In Orbit
Besitzer/Staat WUHAN/CN

Große Konstellationen

Loading constellations...